Belleville, IL

2:31 PM CDT on May 23, 2018 (GMT -0500)
Scott Air Force Base-Midamerica

Weather History for KBLV - October, 2012

Change the Weather History Date:

Thursday, October 25, 2012

  Actual Average Record
Temperature  
Mean Temperature 62 °F -  
Max Temperature 80 °F 65 °F 82 °F (1963)
Min Temperature 44 °F 41 °F 24 °F (2013)
Degree Days  
Heating Degree Days 3    
Growing Degree Days 12 (Base 50)    
Moisture  
Dew Point 53 °F    
Average Humidity 82    
Maximum Humidity 100    
Minimum Humidity 57    
Precipitation  
Precipitation 0.40 in - - ()
Sea Level Pressure  
Sea Level Pressure 29.96 in    
Wind  
Wind Speed 14 mph (West)    
Max Wind Speed 30 mph    
Max Gust Speed 34 mph    
Visibility 10 miles    
Events Rain    
Averages and records for this station are not official NWS values.
T = Trace of Precipitation, MM = Missing Value Source: NWS Daily Summary

Daily Weather History Graph

Daily Weather History Graph

Search for Another Location

Airport or City:

Astronomy

Oct. 25, 2012 Rise Set
Actual Time 7:19 AM CDT 6:07 PM CDT
Civil Twilight 6:51 AM CDT 6:34 PM CDT
Nautical Twilight 6:20 AM CDT 7:05 PM CDT
Astronomical Twilight 5:50 AM CDT 7:35 PM CDT
Moon 3:51 PM CDT (10/25) 3:18 AM CDT (10/25)
Length of Visible Light 11h 42m
Length of Day
10h 48m
Waxing Gibbous, 84% of the Moon is Illuminated
Oct 25
Waxing Gibbous
Oct 29
Full
Nov 6
Last Quarter
Nov 13
New
Nov 20
First Quarter

Hourly Weather History & Observations

Time (CDT) Temp. Windchill Dew Point Humidity Pressure Visibility Wind Dir Wind Speed Gust Speed Precip Events Conditions
12:55 AM 68.0 °F - 62.2 °F 82% 29.88 in 10.0 mi South 11.5 mph - N/A   Clear
1:55 AM 67.1 °F - 62.1 °F 84% 29.87 in 10.0 mi South 9.2 mph - N/A   Clear
2:55 AM 66.4 °F - 61.2 °F 83% 29.86 in 10.0 mi South 10.4 mph - N/A   Clear
3:55 AM 66.0 °F - 60.3 °F 82% 29.86 in 10.0 mi South 11.5 mph - N/A   Clear
4:55 AM 65.5 °F - 59.9 °F 82% 29.86 in 10.0 mi South 11.5 mph - N/A   Clear
5:55 AM 65.1 °F - 59.7 °F 83% 29.88 in 10.0 mi South 10.4 mph - N/A   Clear
6:55 AM 63.5 °F - 59.5 °F 87% 29.89 in 10.0 mi South 9.2 mph - N/A   Partly Cloudy
7:55 AM 63.7 °F - 59.7 °F 87% 29.88 in 10.0 mi South 8.1 mph - N/A   Scattered Clouds
8:55 AM 66.6 °F - 60.1 °F 80% 29.88 in 10.0 mi South 11.5 mph - N/A   Clear
9:55 AM 70.3 °F - 61.2 °F 73% 29.87 in 10.0 mi South 13.8 mph - N/A   Clear
10:55 AM 74.5 °F - 62.4 °F 66% 29.86 in 10.0 mi South 17.3 mph 24.2 mph N/A   Clear
11:55 AM 76.8 °F - 63.5 °F 63% 29.83 in 10.0 mi South 19.6 mph 26.5 mph N/A   Clear
12:55 PM 79.7 °F - 63.9 °F 58% 29.81 in 10.0 mi SSW 17.3 mph 28.8 mph N/A   Partly Cloudy
1:55 PM 78.8 °F - 63.3 °F 59% 29.80 in 10.0 mi South 19.6 mph 28.8 mph N/A   Mostly Cloudy
2:55 PM 78.6 °F - 63.1 °F 59% 29.79 in 10.0 mi SSW 13.8 mph 20.7 mph N/A   Mostly Cloudy
3:55 PM 80.2 °F - 63.5 °F 57% 29.79 in 10.0 mi South 16.1 mph 23.0 mph N/A   Scattered Clouds
4:55 PM 79.2 °F - 62.8 °F 57% 29.80 in 10.0 mi SSW 13.8 mph - N/A   Scattered Clouds
5:24 PM 77.0 °F - 62.6 °F 61% 29.82 in 10.0 mi WNW 29.9 mph - N/A   Squalls
5:37 PM 66.2 °F - 57.2 °F 73% 29.85 in 10.0 mi NW 27.6 mph 34.5 mph N/A   Overcast
5:55 PM 63.9 °F - 57.6 °F 80% 29.86 in 10.0 mi NW 27.6 mph 34.5 mph N/A   Overcast
6:19 PM 59.0 °F - 53.6 °F 82% 29.91 in 10.0 mi NW 20.7 mph 26.5 mph N/A   Light Drizzle
6:36 PM 57.2 °F - 51.8 °F 82% 29.93 in 10.0 mi WNW 18.4 mph 27.6 mph N/A   Overcast
6:55 PM 55.4 °F - 50.2 °F 83% 29.94 in 10.0 mi WNW 20.7 mph 28.8 mph 0.00 in   Overcast
7:34 PM 51.8 °F - 46.4 °F 82% 29.99 in 10.0 mi NW 23.0 mph - N/A Rain Light Rain
7:55 PM 50.0 °F - 46.2 °F 87% 30.00 in 10.0 mi NW 20.7 mph 27.6 mph 0.00 in Rain Light Rain
8:04 PM 48.2 °F - 44.6 °F 87% 30.02 in 10.0 mi NW 17.3 mph - N/A Rain Light Rain
8:19 PM 48.2 °F - 46.4 °F 93% 30.03 in 10.0 mi NW 17.3 mph - N/A Rain Light Rain
8:20 PM 48.2 °F - 46.4 °F 93% 30.03 in 9.0 mi NW 17.3 mph - N/A Rain Light Rain
8:30 PM 48.2 °F - 46.4 °F 93% 30.05 in 8.0 mi NW 12.7 mph 23.0 mph N/A Rain Rain
8:53 PM 46.4 °F 38.7 °F 44.6 °F 93% 30.07 in 3.0 mi NW 20.7 mph 25.3 mph N/A Rain Heavy Rain
8:55 PM 46.6 °F - 45.1 °F 95% 30.06 in 2.5 mi WNW 19.6 mph 25.3 mph 0.16 in Rain Heavy Rain
9:54 PM 44.6 °F 37.2 °F 44.6 °F 100% 30.10 in 10.0 mi NW 17.3 mph 24.2 mph N/A Rain Light Rain
9:55 PM 45.3 °F 38.1 °F 43.9 °F 95% 30.11 in 10.0 mi NW 17.3 mph 24.2 mph 0.19 in Rain Light Rain
10:21 PM 44.6 °F 38.1 °F 42.8 °F 93% 30.11 in 10.0 mi NW 13.8 mph - N/A Rain Light Rain
10:26 PM 44.6 °F 39.2 °F 42.8 °F 93% 30.12 in 10.0 mi NW 10.4 mph - N/A   Overcast
10:34 PM 44.6 °F 38.4 °F 42.8 °F 93% 30.12 in 10.0 mi NW 12.7 mph - N/A   Light Drizzle
10:40 PM 44.6 °F 38.4 °F 42.8 °F 93% 30.12 in 10.0 mi NW 12.7 mph - N/A Rain Light Rain
10:53 PM 44.6 °F 38.8 °F 42.8 °F 93% 30.12 in 7.0 mi NNW 11.5 mph - N/A Rain Rain
10:55 PM 45.1 °F 38.1 °F 43.2 °F 93% 30.12 in 8.0 mi NNW 16.1 mph - 0.02 in Rain Light Rain
11:07 PM 44.6 °F 38.8 °F 42.8 °F 93% 30.13 in 10.0 mi NNW 11.5 mph - N/A Rain Light Rain
11:12 PM 44.6 °F 39.2 °F 42.8 °F 93% 30.14 in 10.0 mi NNW 10.4 mph - N/A   Overcast
11:55 PM 45.5 °F 39.9 °F 42.4 °F 89% 30.15 in 10.0 mi NNW 11.5 mph - 0.03 in   Overcast